Back to catalog

DIRECTV 2

DBS 2

AliveCommunicationsGEO
NORAD 23192·PAYLOAD·🇺🇸 United States

Launched Aug 3, 1994 from Cape Canaveral Space Force Station

Loading…

TLE

FreshSource: Space-Track

Epoch: Sep 14, 2026, 13:48 UTC

1 23192U 94047A   26257.57501435 -.00000203  00000-0  00000-0 0  9999
2 23192  13.0377  25.7696 0006490 335.8670 198.3369  0.98635910126544

Track DIRECTV 2 in real time with AllMySat

Download on the App Store